Terminal Aerodrome Forecast
Issued by NWS Riverton, WY

Home | Current Version | Previous Version | Text Only | Print | Product List | Glossary On
Versions: 1 2 3 4 5 6 7 8 9 10 11 12 13 14 15 16 17 18 19
000
FTUS45 KRIW 310039 AAA
TAFRIW
TAF AMD
KRIW 310039Z 3101/3124 04014G22KT P6SM VCSH SCT040 BKN080
     FM310300 03014G24KT P6SM -RA OVC028
     FM310900 36020G30KT 5SM -RA OVC020
     FM311200 03020G30KT 3SM -RASN OVC010
     FM311500 04020G30KT 3/4SM -SN OVC010=

USA.gov is the U.S. government's official web portal to all federal, state and local government web resources and services.